GFSFLT2_con_lsi_195.txt.gz
Lid_Strength_Index
4 4 3 3 3 3 2 2 2 2 2 2 2 2 2 2 3 2 2 2 2 1 1 1 0 0 1 0 0 2 3 4
4 3 3 2 2 2 3 2 2 2 2 3 3 3 2 3 3 3 3 2 2 1 1 1 0 0 1 1 1 4 6 5
4 4 3 3 3 3 2 3 2 2 3 3 3 3 2 3 3 3 3 2 1 2 2 1 0 1 1 2 3 4 6 5
4 4 4 4 4 3 3 3 3 3 4 4 3 3 3 3 4 4 4 3 2 3 1 1 1 2 5 4 4 6 6 6
4 4 4 4 4 3 4 4 4 4 5 4 4 4 4 4 4 4 4 3 4 2 2 3 3 3 6 6 6 5 6 5
5 5 5 5 5 5 5 5 5 5 5 5 5 5 5 5 5 5 4 4 3 3 3 4 5 6 7 7 6 5 5 5
5 5 6 6 6 5 6 7 7 7 7 7 7 7 7 6 6 6 5 4 4 4 5 6 7 6 7 7 7 6 6 7
6 6 7 8 8 8 8 8 8 9 9 9 8 8 8 8 7 5 5 5 7 6 6 6 6 7 8 8 7 7 8 9
8 8 9 9 9 9 10 10 10 10 9 9 8 8 8 8 7 6 6 7 7 7 7 7 7 8 9 9 9 8 9 9
11 11 11 11 10 11 11 11 10 9 9 9 9 9 8 8 7 7 8 8 8 8 9 9 9 9 9 10 10 9 8 9
12 12 12 11 11 11 11 11 10 10 10 10 10 9 9 8 8 8 9 7 8 9 10 10 10 9 10 10 10 10 10 10
12 12 13 13 10 10 10 10 10 10 11 10 9 9 9 8 8 7 8 9 9 10 11 10 11 10 10 9 9 9 9 8
12 13 13 11 10 10 10 10 10 10 9 9 9 9 10 10 10 9 9 9 9 10 10 10 10 11 10 10 10 9 8 9
13 12 11 11 10 10 9 9 8 9 10 10 10 10 10 9 10 11 10 10 11 11 11 10 11 11 11 11 11 12 11 11
12 11 10 10 10 10 9 9 9 9 10 10 10 10 10 11 10 11 12 11 11 11 11 11 11 11 12 12 12 12 11 10
11 10 10 10 10 10 9 9 9 10 10 10 10 10 10 10 10 9 9 10 11 11 11 11 12 12 12 12 12 11 10 10
10 10 10 10 10 10 9 9 10 10 10 10 10 10 9 9 9 9 10 10 10 10 10 11 11 12 12 12 10 8 9 9
11 11 10 11 11 10 10 10 10 10 10 10 10 9 9 9 9 10 10 11 10 10 10 11 10 9 9 9 8 8 8 9
10 10 10 10 10 9 9 9 9 9 9 9 10 9 9 10 10 11 11 10 11 12 11 10 12 8 9 9 9 9 9 9
11 11 11 10 10 9 9 9 8 8 8 9 9 10 10 11 11 10 10 11 11 11 10 10 13 9 9 9 9 9 9 9

GFSFLT2_con_lsi_198.txt.gz
Lid_Strength_Index
2 2 2 2 2 2 1 1 1 0 1 1 0 0 -0 -0 -0 -0 -0 0 0 -0 -0 -0 -0 -0 -0 0 1 0 1 1
3 2 2 2 2 2 2 1 0 0 0 0 0 0 0 0 -0 0 1 1 1 0 -0 -0 -0 -0 -0 1 1 1 1 2
3 3 2 2 2 2 2 2 1 1 1 1 1 0 1 0 0 1 1 2 2 1 1 -0 -0 1 1 2 1 1 2 3
4 3 3 3 3 2 2 2 1 1 1 1 2 2 2 2 2 2 2 2 2 2 1 1 1 1 5 4 2 3 4 5
5 4 3 4 4 3 3 2 2 3 3 3 3 3 4 4 3 3 3 2 2 2 2 1 1 2 6 5 4 4 5 4
7 8 6 4 4 3 3 3 4 4 5 5 4 5 5 5 4 3 3 3 3 3 2 2 4 4 6 6 6 5 6 5
8 8 7 6 5 4 5 6 6 6 6 6 6 5 6 5 4 5 4 5 3 4 3 5 5 5 7 7 6 6 6 6
8 9 8 8 8 6 7 8 8 7 7 6 6 6 7 8 7 6 5 4 5 5 6 5 7 7 8 8 7 7 7 7
9 10 10 10 10 9 9 9 9 8 8 8 8 8 7 7 7 6 6 6 7 7 8 8 7 7 9 9 9 8 8 8
10 11 11 10 10 10 11 11 10 9 9 9 9 8 7 7 7 7 7 8 9 8 8 8 8 9 9 9 10 9 8 9
11 12 12 11 11 10 11 10 10 9 9 9 9 9 8 7 8 8 9 8 8 9 9 10 10 9 10 10 10 10 9 9
12 12 13 13 10 10 9 9 9 9 10 10 9 9 8 8 8 8 8 9 9 9 10 10 10 10 10 8 8 9 9 8
12 12 12 11 10 10 9 9 9 10 9 9 9 9 10 10 9 9 9 9 9 10 10 10 10 10 9 10 9 7 6 8
12 11 11 10 10 9 9 8 8 9 9 9 9 9 9 9 10 11 11 11 11 11 11 10 10 11 11 11 11 11 11 11
11 10 10 10 9 9 9 8 8 9 9 9 9 9 10 10 10 10 12 11 11 11 12 12 11 11 11 11 12 12 11 10
10 10 10 10 10 9 8 8 8 8 9 9 9 9 9 9 8 8 8 8 8 9 11 10 12 12 12 12 11 10 8 8
10 10 10 10 10 10 9 8 9 9 9 9 9 8 8 8 8 7 7 8 9 9 9 10 10 11 11 10 9 7 8 8
11 11 10 10 10 9 9 8 8 9 9 10 8 8 9 8 8 9 9 8 8 9 9 8 7 7 7 7 7 7 8 7
10 10 10 10 9 8 8 7 7 7 8 8 9 8 9 9 8 8 8 9 8 8 8 9 12 7 7 8 7 7 8 8
10 10 9 9 8 8 7 7 7 8 8 9 9 9 8 8 8 7 7 7 7 8 8 8 12 7 7 7 7 8 7 7

GFSFLT2_con_lsi_201.txt.gz
Lid_Strength_Index
2 2 2 2 1 1 1 1 1 1 1 1 1 1 1 0 0 0 -0 -0 -0 -1 -0 0 0 0 -0 0 1 1 1 1
3 2 2 2 2 1 2 1 0 1 1 1 2 1 1 1 0 0 0 -0 -0 -0 -0 0 -0 0 0 1 1 1 1 1
4 4 3 3 3 2 1 2 1 1 2 2 2 1 1 1 0 0 0 0 -0 0 1 1 0 0 1 2 1 1 2 3
5 5 5 5 5 4 3 3 3 2 1 2 1 1 1 0 1 1 1 1 1 1 2 2 1 1 3 4 2 2 3 3
6 6 6 6 7 6 6 4 3 3 3 2 1 1 1 2 2 3 3 2 2 2 2 2 1 2 5 5 3 2 3 3
8 7 8 6 6 7 7 5 4 4 4 3 3 2 4 4 4 4 3 3 3 2 2 1 3 4 6 5 4 4 5 4
8 8 7 7 7 7 7 7 6 6 6 5 5 5 5 5 5 4 3 3 3 3 3 4 5 5 6 6 4 5 5 4
8 8 8 9 8 8 9 9 8 7 7 6 6 5 5 5 4 5 4 5 5 5 6 6 6 6 7 8 7 7 7 8
9 10 10 10 9 9 10 10 10 8 7 6 6 6 6 6 7 7 6 6 7 8 8 8 7 7 8 9 9 8 8 9
10 11 12 11 10 11 11 11 10 9 9 9 8 8 8 6 7 6 7 8 9 9 9 9 8 7 8 9 10 9 8 9
11 12 13 12 10 9 10 10 9 9 9 9 9 8 8 7 7 8 9 9 9 9 9 9 9 9 9 9 10 10 9 8
11 12 12 12 10 9 9 9 9 9 10 9 9 8 8 8 8 8 8 8 9 9 10 10 10 10 9 9 8 9 9 8
11 11 11 11 10 9 9 9 9 9 9 9 10 10 9 9 9 9 9 9 9 10 10 10 11 10 9 10 8 6 6 7
11 10 10 9 9 9 9 8 8 9 9 9 9 9 9 9 10 11 11 11 11 11 11 9 9 11 11 11 10 10 11 10
10 10 9 9 9 9 8 8 8 8 9 9 9 9 10 9 9 9 10 11 11 11 11 11 11 11 11 11 11 11 11 10
10 9 9 9 9 9 8 8 8 9 9 9 8 8 8 7 7 7 7 8 8 9 11 10 12 12 12 11 11 10 6 6
9 9 9 9 9 9 8 8 8 8 8 8 7 6 6 6 6 6 8 8 9 9 9 10 10 11 11 10 9 7 7 8
10 11 9 9 9 8 8 7 8 8 8 9 8 7 7 7 7 8 8 8 8 8 7 7 6 7 7 7 7 7 7 7
9 9 8 8 8 7 6 7 7 7 8 8 10 8 7 7 7 8 7 6 7 7 7 8 14 7 7 7 7 7 6 6
9 9 8 8 7 7 7 7 8 8 9 9 8 6 6 6 6 6 7 7 7 8 7 8 12 6 7 7 7 6 6 5

GFSFLT2_con_lsi_204.txt.gz
Lid_Strength_Index
3 3 3 2 2 2 2 1 1 1 1 1 1 1 1 1 1 1 0 0 0 0 1 1 1 1 1 0 1 1 1 1
3 3 3 3 3 3 3 3 2 1 1 1 1 1 1 1 1 1 1 0 0 1 1 1 1 0 0 1 1 1 1 2
4 4 4 4 5 5 4 4 4 3 3 3 2 1 1 2 2 1 1 0 0 0 1 1 1 1 1 1 1 1 2 4
6 6 6 6 6 6 6 5 5 4 5 5 3 3 3 2 1 1 0 0 1 0 2 2 2 2 3 3 2 2 3 4
8 8 8 8 7 7 8 8 7 6 7 6 5 4 3 2 2 1 1 1 1 3 3 2 2 2 4 4 3 2 2 3
8 8 8 7 7 7 7 7 7 7 7 7 5 4 3 3 3 3 3 3 3 3 3 3 3 3 5 5 4 3 3 4
8 8 8 8 8 8 9 9 9 8 8 7 6 5 5 5 5 4 3 4 4 4 3 3 4 5 6 6 4 4 5 7
9 9 9 10 10 10 10 10 10 10 9 7 6 6 5 5 5 5 5 4 4 5 6 5 6 7 8 7 6 6 8 7
9 10 11 11 11 11 11 11 11 10 9 8 7 6 6 5 5 7 7 7 8 8 8 8 8 8 7 8 8 8 9 9
11 11 12 11 10 10 10 10 9 9 9 9 9 8 7 7 7 7 7 8 9 9 9 9 8 8 8 9 9 8 8 8
11 12 12 11 10 9 10 10 9 9 9 9 8 8 7 7 8 8 9 8 9 9 9 9 9 9 9 9 10 9 9 8
11 11 11 11 10 9 10 9 9 9 9 9 8 8 8 8 8 8 8 9 9 9 10 10 10 10 9 9 9 8 9 7
10 10 10 10 10 9 9 8 8 9 9 9 9 9 10 10 10 10 10 9 10 11 10 10 10 10 9 10 9 7 6 7
10 10 10 9 9 9 8 8 8 9 9 10 10 10 10 10 11 11 11 11 11 11 10 9 9 10 11 11 11 11 11 10
9 9 9 9 9 9 9 8 8 9 10 10 9 10 10 10 10 11 11 11 11 11 11 11 11 12 11 11 11 11 10 8
9 9 9 9 9 9 8 8 8 8 8 9 8 8 8 9 9 8 8 9 10 10 11 11 11 11 10 9 9 8 7 7
9 9 9 9 9 9 8 7 8 8 7 7 6 6 6 7 8 8 9 9 10 10 9 8 8 10 10 10 9 7 7 8
9 10 9 9 9 8 7 8 8 8 7 9 7 7 8 8 7 7 7 7 7 7 7 7 6 7 7 7 7 7 7 7
9 8 8 8 8 8 8 8 8 8 7 6 10 6 6 6 6 6 7 7 7 8 8 9 13 7 7 7 7 7 6 6
8 8 8 8 8 8 8 8 8 7 6 5 5 6 6 6 6 7 7 7 8 8 7 8 11 7 7 7 6 6 5 5

GFSFLT2_con_lsi_207.txt.gz
Lid_Strength_Index
6 6 6 5 5 4 4 5 5 5 4 4 4 3 4 4 3 2 2 1 1 1 0 1 1 1 1 2 2 2 2 2
6 7 6 6 6 6 6 6 6 6 6 6 7 5 4 4 4 4 3 2 2 2 2 2 2 2 1 1 2 2 3 2
7 7 8 7 8 8 8 8 8 7 7 7 7 6 4 4 4 3 3 2 2 2 2 2 3 2 2 2 2 2 3 3
8 8 9 9 9 9 8 8 8 7 8 8 6 6 6 6 4 3 2 2 2 3 3 2 3 2 2 3 2 2 2 3
9 10 10 9 9 8 9 9 8 8 8 8 7 6 6 4 3 4 3 4 4 4 4 4 3 3 4 4 3 2 3 3
10 9 9 9 9 10 10 9 10 10 10 9 7 7 6 5 5 5 6 5 4 4 4 3 3 3 5 5 4 2 5 5
9 9 10 10 10 10 10 10 10 10 10 9 8 7 6 6 6 6 5 5 5 5 4 4 5 5 6 5 4 5 5 6
10 10 10 11 10 10 10 11 10 10 10 9 8 7 6 6 6 6 6 5 5 5 6 6 6 7 7 7 6 6 7 7
10 10 11 11 10 10 10 10 10 9 9 9 8 8 7 7 7 7 7 7 7 7 8 7 8 8 8 8 8 8 8 8
10 11 11 11 10 10 10 10 9 9 9 9 9 8 8 7 7 7 8 8 8 9 9 9 8 8 8 9 9 8 8 9
10 11 11 10 10 9 10 9 9 9 9 9 9 8 8 7 8 8 9 9 9 9 9 10 9 9 9 9 9 9 8 10
10 10 11 10 9 9 9 9 9 9 10 9 9 9 9 8 8 8 9 9 9 10 10 10 10 10 9 9 9 9 9 8
10 10 10 9 9 9 9 8 8 9 9 9 10 10 10 10 10 10 10 10 10 10 10 10 10 10 10 10 11 10 9 8
10 9 10 9 8 8 9 8 9 9 10 10 10 10 10 10 11 11 11 11 11 11 10 10 10 11 11 11 11 11 10 8
10 10 9 9 9 9 8 8 8 9 9 9 9 9 10 10 11 11 13 12 11 11 11 11 11 10 10 10 9 9 9 9
9 9 9 9 9 9 8 8 8 8 8 9 9 10 11 11 11 11 12 12 12 11 10 10 10 10 10 10 10 9 10 9
9 9 9 9 9 9 8 9 9 8 9 9 10 10 10 10 10 11 11 11 12 12 11 10 10 10 10 9 9 10 9 9
9 9 9 9 9 9 8 9 10 10 9 8 9 10 10 11 11 11 11 11 11 11 11 11 11 10 10 10 9 9 9 9
8 9 9 9 9 8 8 9 9 9 8 9 9 9 10 10 11 11 11 11 11 11 12 12 12 9 9 9 9 8 8 8
9 9 10 9 8 7 7 8 8 9 9 9 10 10 10 10 11 11 11 11 11 11 11 10 11 9 9 9 9 8 8 8